BULGARIASAT-1

Last updated on Thu Oct 30 2025 00:02:50 GMT+0000 (Coordinated Universal Time)

1 42801U 17038A 25302.25736667 .00000021 00000+0 00000+0 0 9999 2 42801 0.0293 97.9905 0002884 129.4429 264.9778 1.00272650 30529
UTC large
Height (km)
Speed (km/s)
/
Latitude / Longitude
Inclination (degrees)
Orbital Period (minutes)
Azimuth
Elevation
Range (km)
Doppler Factor

Next 0 passes for location: London (51.5072 / 0.1276)

Sorry there are no passes over London.